Overview Statistics Trail Chart Weather Telemetry Raw packets
 

This is the latest recevied weather packets stored in our database for station/object KC5DAQ-26. If no packets are shown the sender has not sent any weather packets the latest 10 day(s).

<< 469 470 471 472 473 474 475 >>
Time Temp. Humidity Pressure Rain* Wind** Luminosity Snow
1787934152 31.67° C 72% 1020.7 hPa 0 mm - 396 W/m² -
1787934092 31.67° C 72% 1020.6 hPa 0 mm - 841 W/m² -
1787934032 31.67° C 73% 1020.6 hPa 0 mm - 800 W/m² -
1787933971 31.67° C 74% 1020.6 hPa 0 mm - 795 W/m² -
1787933911 31.67° C 74% 1020.6 hPa 0 mm - 788 W/m² -
1787933853 31.67° C 72% 1020.6 hPa 0 mm - 775 W/m² -
1787933792 31.67° C 72% 1020.6 hPa 0 mm - 779 W/m² -
1787933731 31.67° C 75% 1020.5 hPa 0 mm - 777 W/m² -
1787933672 31.67° C 78% 1020.6 hPa 0 mm - 768 W/m² -
1787933611 31.67° C 78% 1020.5 hPa 0 mm - 767 W/m² -
1787933552 31.67° C 75% 1020.6 hPa 0 mm - 756 W/m² -
1787933493 31.67° C 78% 1020.6 hPa 0 mm - 724 W/m² -
1787933431 31.67° C 76% 1020.6 hPa 0 mm - 742 W/m² -
1787933372 31.67° C 74% 1020.6 hPa 0 mm - 754 W/m² -
1787933312 31.67° C 74% 1020.6 hPa 0 mm - 763 W/m² -
1787933253 31.67° C 74% 1020.6 hPa 0 mm - 761 W/m² -
1787933191 31.67° C 74% 1020.5 hPa 0 mm - 758 W/m² -
1787933131 31.67° C 75% 1020.6 hPa 0 mm - 744 W/m² -
1787933072 31.67° C 77% 1020.6 hPa 0 mm - 740 W/m² -
1787933012 31.67° C 79% 1020.5 hPa 0 mm - 740 W/m² -
1787932952 31.67° C 78% 1020.6 hPa 0 mm - 738 W/m² -
1787932891 31.67° C 79% 1020.5 hPa 0 mm - 738 W/m² -
1787932832 31.67° C 75% 1020.5 hPa 0 mm - 735 W/m² -
1787932772 31.67° C 76% 1020.5 hPa 0 mm - 738 W/m² -
1787932711 31.67° C 76% 1020.5 hPa 0 mm - 735 W/m² -

* Rain latest hour (hover to see other rain measurements)
** Current wind speed in m/s (hover to see current wind gust speed)